Location: Unspecified
(0.0000°N, 0.0000°E)
Time: 17:47:17
(UTC+02:00)

DELTA 2 R/B (1) - Visible Passes

Search period start: 21 August 2017 00:00
Search period end: 31 August 2017 00:00
Orbit: 790 x 803 km, 39.6° (Epoch: 20 August)

Date Brightness Start Highest point End Pass type
(mag) Time Alt. Az. Time Alt. Az. Time Alt. Az.
25 Aug 5.9 22:31:09 10° NNW 22:32:13 15° NNW 22:32:13 15° NNW visible
26 Aug 5.1 22:00:28 10° NNW 22:03:19 25° N 22:03:19 25° N visible
27 Aug 4.6 21:29:48 10° NNW 21:34:30 29° NE 21:34:30 29° NE visible
28 Aug 4.8 20:59:10 10° NNW 21:03:47 26° NE 21:05:47 21° ENE visible
28 Aug 5.9 22:44:47 10° WNW 22:46:36 20° WNW 22:46:36 20° WNW visible
29 Aug 4.9 20:28:34 10° N 20:32:56 23° NE 20:37:08 11° E visible
29 Aug 4.6 22:13:52 10° WNW 22:17:57 42° W 22:17:57 42° W visible
30 Aug 3.9 21:42:57 10° WNW 21:48:27 58° SW 21:49:22 51° S visible
